This is the latest recevied weather packets stored in our database for station/object K5OBH. If no packets are shown the sender has not sent any weather packets the latest 10 day(s).
| Time | Temp. | Humidity | Pressure | Rain* | Wind** | Luminosity | Snow |
|---|---|---|---|---|---|---|---|
| 1778104709 | 17.78° C | 54% | 1015.1 hPa | 0 mm | - | 419 W/m² | - |
| 1778104404 | 17.78° C | 54% | 1015.1 hPa | 0 mm | - | 435 W/m² | - |
| 1778104100 | 17.78° C | 54% | 1015.3 hPa | 0 mm | - | 445 W/m² | - |
| 1778103797 | 17.78° C | 55% | 1015.3 hPa | 0 mm | - | 463 W/m² | - |
| 1778103496 | 17.78° C | 54% | 1015.2 hPa | 0 mm | - | 143 W/m² | - |
| 1778103192 | 17.22° C | 55% | 1015.1 hPa | 0 mm | - | 509 W/m² | - |
| 1778102890 | 17.78° C | 54% | 1015.4 hPa | 0 mm | - | 515 W/m² | - |
| 1778102585 | 17.78° C | 54% | 1015.5 hPa | 0 mm | - | 187 W/m² | - |
| 1778102281 | 17.78° C | 53% | 1015.5 hPa | 0 mm | - | 563 W/m² | - |
| 1778101977 | 16.67° C | 56% | 1015.5 hPa | 0 mm | - | 384 W/m² | - |
| 1778101675 | 16.67° C | 56% | 1015.8 hPa | 0 mm | - | 702 W/m² | - |
| 1778101371 | 17.78° C | 55% | 1015.5 hPa | 0 mm | - | 268 W/m² | - |
| 1778101068 | 17.78° C | 55% | 1015.6 hPa | 0 mm | - | 761 W/m² | - |
| 1778100764 | 17.22° C | 56% | 1015.7 hPa | 0 mm | - | 776 W/m² | - |
| 1778100461 | 17.22° C | 56% | 1015.5 hPa | 0 mm | - | 321 W/m² | - |
| 1778100158 | 16.67° C | 57% | 1015.7 hPa | 0 mm | - | 760 W/m² | - |
| 1778099856 | 17.78° C | 55% | 1015.9 hPa | 0 mm | - | 547 W/m² | - |
| 1778099553 | 16.67° C | 55% | 1015.7 hPa | 0 mm | - | 732 W/m² | - |
| 1778099250 | 16.67° C | 58% | 1015.9 hPa | 0 mm | - | 800 W/m² | - |
| 1778098947 | 16.67° C | 56% | 1015.6 hPa | 0 mm | - | 523 W/m² | - |
| 1778098644 | 17.22° C | 56% | 1015.9 hPa | 0 mm | - | 284 W/m² | - |
| 1778098340 | 17.22° C | 58% | 1015.8 hPa | 0 mm | - | 930 W/m² | - |
| 1778098038 | 16.67° C | 56% | 1015.9 hPa | 0 mm | - | 717 W/m² | - |
| 1778097734 | 16.67° C | 57% | 1015.8 hPa | 0 mm | - | 874 W/m² | - |
| 1778097431 | 16.67° C | 55% | 1015.8 hPa | 0 mm | - | 325 W/m² | - |
* Rain latest hour (hover to see other rain measurements)
** Current wind speed in m/s (hover to see current wind gust speed)